Location: Lardier
(44.4349°N, 5.9803°E)
Time: 09:40:31
(UTC+00:00)

Daily predictions for brighter satellites

Satellite Brightness Start Highest point End
(mag) Time Altitude Azimuth Time Altitude Azimuth Time Altitude Azimuth
CSL-04 Debris 4.2 19:17:27 10° SSE 19:22:52 83° ENE 19:28:20 10° NNW
Cosmos 2322 Rocket 4.4 19:26:13 10° NNE 19:28:06 12° NE 19:29:58 10° ENE
Cosmos 2082 Rocket 2.6 19:25:26 10° S 19:30:46 43° ESE 19:36:08 10° NE
Cosmos 968 Rocket 3.9 19:25:47 10° NNW 19:31:01 67° WSW 19:36:11 10° S
Milstar 3 4.2 19:26:25 10° SW 19:31:19 21° S 19:37:00 10° SE
Okean 1 Rocket 3.1 19:27:21 10° S 19:31:44 88° E 19:36:11 10° N
Cosmos 2369 4.5 19:29:27 10° NNW 19:34:49 39° NE 19:40:09 10° SE
Cosmos 909 Rocket 4.4 19:30:47 10° S 19:36:42 40° ESE 19:42:33 10° NE
PAYLOAD B 4.3 19:31:32 10° SSE 19:36:59 69° ENE 19:42:30 10° N
Cosmos 2228 3.8 19:34:08 10° SSE 19:37:43 30° E 19:41:21 10° NNE
GEOS 3 Rocket 3.8 19:33:32 10° SE 19:38:51 83° SW 19:44:16 10° NW
Okean-O 3.8 19:35:25 10° SE 19:39:05 27° ENE 19:42:47 10° N
Cosmos 1331 Rocket 4.4 19:34:35 10° SSW 19:39:47 70° WNW 19:45:01 10° NNE
USA 186 3.5 19:39:07 10° ESE 19:40:39 14° ENE 19:42:10 10° NNE
Cosmos 1452 Rocket 3.5 19:37:02 10° SSW 19:42:15 88° ESE 19:47:31 10° NNE
USA 305 2.6 19:38:24 10° NW 19:42:31 84° NE 19:45:56 12° SE
NOSS 3-3 (A) 3.8 19:38:00 10° S 19:42:46 46° ESE 19:48:20 10° NE
Cosmos 1725 Rocket 4.1 19:36:56 10° S 19:43:04 61° E 19:49:13 10° NNE
Cosmos 1697 Rocket 3.8 19:40:18 10° NW 19:45:35 43° WSW 19:50:51 10° S
Cosmos 1741 Rocket 4.1 19:40:43 10° NNW 19:46:03 83° WSW 19:51:20 10° SSE
ISS -2.3 19:43:54 10° W 19:47:05 40° NNW 19:50:15 10° NE
Meteor 1-27 4.3 19:43:12 10° S 19:48:46 63° E 19:54:17 10° NNE
ADEOS 3.6 19:44:45 10° SSE 19:49:54 66° ENE 19:55:04 10° N
IRAS Rocket 4.5 19:46:23 10° S 19:51:50 72° WSW 19:57:21 10° NNW
Tsikada Rocket 4.4 19:46:12 10° N 19:52:08 47° ENE 19:57:49 11° SSE
Cosmos 1302 Rocket 3.9 19:47:33 10° S 19:52:39 66° ESE 19:57:48 10° NNE
USA 306 3.9 19:49:47 10° W 19:53:01 33° NNW 19:55:27 10° NE
Cosmos 2084 Rocket 3.7 19:51:05 10° NNW 19:55:14 56° NE 19:58:40 15° SE
Cosmos 2016 Rocket 4.0 19:52:12 10° S 19:58:25 73° E 20:04:36 10° NNE
Cosmos 2173 Rocket 4.4 19:52:45 10° SSW 19:58:51 67° W 20:05:05 10° N
SL-16 R/B 3.5 19:54:07 10° N 19:58:57 28° NE 20:03:19 12° ESE
CZ-4C R/B 3.2 19:55:07 10° WSW 19:59:07 42° NW 20:04:10 10° NNE
Meteor 1-31 Rocket 4.0 20:00:14 10° SSW 20:03:26 34° W 20:06:38 10° NNW
SKYMED 3 4.2 20:00:13 10° NNE 20:04:12 82° ESE 20:08:09 10° S
SL-08 R/B 3.3 19:59:38 10° NNE 20:04:27 66° ESE 20:09:08 10° S
COSMOS 2406 3.6 20:03:24 10° S 20:08:44 41° ESE 20:14:05 10° NE
DELTA 2 R/B (1) 3.8 20:03:39 10° WSW 20:09:01 50° S 20:13:54 12° E
Terra 2.1 20:06:46 10° S 20:11:25 66° WSW 20:16:06 10° NNW
Helios 1A Rocket 3.4 20:09:40 10° N 20:12:43 45° WNW 20:15:43 10° SW
NOSS 3-3 (C) 3.6 20:08:51 10° SSW 20:13:52 65° ESE 20:19:48 10° NE
CZ-4 R/B 3.0 20:11:32 10° SSW 20:14:40 27° W 20:17:49 10° NW
Cosmos 1743 2.7 20:11:44 10° NNW 20:14:41 53° W 20:17:25 11° S
Meteor 2-12 Rocket 4.4 20:09:19 10° N 20:15:27 78° E 20:21:08 12° SSE
Cosmos 1980 Rocket 2.8 20:10:35 10° NNW 20:16:09 56° WSW 20:21:36 10° S
YAOGAN 11 4.2 20:12:55 10° NNE 20:17:18 58° E 20:21:41 10° S
Cosmos 1933 4.3 20:19:19 22° ESE 20:20:30 25° E 20:23:41 10° NNE
Cosmos 2333 Rocket 3.1 20:19:10 10° NNW 20:24:27 37° NE 20:28:05 18° ESE
Cosmos 2061 Rocket 4.0 20:22:37 10° S 20:28:49 79° E 20:35:08 10° N
Cosmos 1782 3.5 20:26:55 10° SSW 20:30:18 45° WNW 20:33:43 10° N
Cosmos 1626 Rocket 3.6 20:29:39 10° N 20:33:58 60° E 20:36:18 26° SSE
SPOT 3 Rocket 3.8 20:33:29 23° SE 20:36:30 54° ENE 20:41:30 10° N
Cosmos 2098 Rocket 4.3 20:35:17 24° ESE 20:36:43 28° E 20:40:29 10° NNE
CZ-4B R/B 4.2 20:34:12 10° S 20:39:35 45° W 20:44:58 10° NNW
Ariane Rocket 3.5 20:37:06 24° SE 20:39:44 45° ENE 20:44:32 10° N
Cosmos 220 Rocket 4.4 20:39:51 31° SE 20:40:50 36° ESE 20:44:35 10° NE
BREEZE-M DEB (TANK) 4.0 20:37:49 10° WNW 20:41:07 50° SSW 20:45:49 22° SE
Cosmos 2360 Rocket 3.4 20:37:11 10° N 20:42:11 30° NE 20:45:21 18° E
Spot 2 Rocket 3.8 20:41:16 16° S 20:45:12 62° WSW 20:50:12 10° NNW
Meteor 1-25 Rocket 4.5 20:43:37 10° N 20:49:09 52° ENE 20:51:51 28° SE
Okean O Rocket 2.3 20:52:44 18° SSW 20:55:36 47° W 20:59:46 10° NNW
Cosmos 2151 2.8 20:51:41 10° N 20:55:48 74° E 20:57:14 39° SSE
Cosmos 2219 Rocket 3.7 20:51:30 10° N 20:56:12 26° NE 20:59:14 17° E
Cosmos 1461 2.5 20:57:10 10° SW 21:00:52 82° NW 21:04:34 10° NNE
CZ-2C R/B 2.9 21:01:38 36° NE 21:01:38 36° NE 21:03:53 10° N
CZ-4B R/B 3.3 21:07:48 37° SSE 21:09:43 88° ENE 21:14:34 10° NNW
Cosmos 1891 Rocket 4.4 21:05:18 20° S 21:09:46 89° WNW 21:15:51 10° N
USA 186 3.5 21:09:07 19° WSW 21:09:48 21° W 21:11:58 10° NW
Okean 1-7 Rocket 4.1 21:05:37 10° N 21:09:55 45° ENE 21:10:52 39° ESE
BREEZE-M DEB (TANK) 4.3 20:54:38 10° WSW 21:10:20 82° NNW 21:15:31 10° ENE
Cosmos 1437 Rocket 2.8 21:09:58 35° SSW 21:11:16 64° WNW 21:14:50 10° N
Cosmos 1544 Rocket 4.0 21:08:29 20° SSW 21:11:23 59° W 21:15:41 10° N
Cosmos 2322 Rocket 2.6 21:07:55 10° NNW 21:13:30 54° ENE 21:15:45 33° ESE
Cosmos 2082 Rocket 4.0 21:09:50 10° WSW 21:14:56 33° NW 21:20:04 10° N
Okean-O 4.1 21:12:28 16° SSW 21:15:15 30° W 21:19:09 10° NNW
Cosmos 1777 Rocket 4.2 21:12:19 10° NNW 21:17:28 56° ENE 21:19:08 39° ESE
IRS-1C Rocket 4.1 21:20:12 36° S 21:22:26 77° WSW 21:27:44 10° NNW
ISS -1.4 21:21:44 10° NW 21:24:28 23° N 21:27:13 10° NE
Cosmos 1503 Rocket 4.4 21:19:28 10° NNW 21:24:31 49° ENE 21:25:58 38° ESE
Cosmos-2242 4.3 21:30:18 26° ENE 21:30:18 26° ENE 21:33:09 10° NNE
CZ-4B R/B 3.5 21:29:24 34° WSW 21:29:52 36° W 21:33:04 10° NNW
Nadezhda 4 Rocket 3.9 21:24:01 10° N 21:30:09 74° E 21:32:26 41° SSE
USA 290 3.6 21:33:39 31° NE 21:33:39 31° NE 21:35:29 10° NNE
Meteor 2-10 4.2 21:28:02 10° N 21:33:48 79° E 21:35:38 45° SSE
Cosmos 1486 Rocket 3.9 21:30:33 10° NNW 21:35:50 89° WSW 21:37:16 50° SSE
DNEPR-1 R/B 4.4 21:32:37 10° NW 21:38:17 90° SSW 21:40:39 42° SSE
Cosmos 2278 3.7 21:32:40 10° NNW 21:38:23 73° WSW 21:40:11 45° S
Meteor 1-5 Rocket 4.2 21:33:17 10° N 21:39:03 87° W 21:41:06 43° S
SL-16 R/B 2.7 21:37:49 10° NW 21:43:19 52° WSW 21:45:09 37° SSW
Cosmos 1825 Rocket 3.3 21:39:57 10° N 21:44:20 87° E 21:44:44 73° SSE
Cosmos 2195 Rocket 4.5 21:42:09 10° N 21:48:22 69° E 21:50:09 47° SE
Cosmos 1953 Rocket 3.7 21:45:23 10° N 21:49:40 56° E 21:49:43 56° E
Cosmos 2026 Rocket 4.1 21:46:47 10° N 21:53:07 64° E 21:54:55 46° SE
DELTA 2 R/B (1) 3.9 21:49:41 10° W 21:54:36 45° SSW 21:54:36 45° SSW
Cosmos 2058 Rocket 3.6 21:57:50 44° ENE 21:57:50 44° ENE 22:01:30 10° NNE
Aureole 1 Rocket 4.5 21:53:13 10° N 21:58:49 49° ENE 22:00:52 37° ESE
Cosmos 540 Rocket 3.3 21:58:20 63° S 21:59:08 79° ESE 22:04:18 10° NNE
Cosmos 1766 4.4 22:00:09 10° N 22:02:02 29° NNE 22:02:02 29° NNE
Cosmos 2333 Rocket 3.1 22:03:31 10° NW 22:08:43 37° WSW 22:10:06 32° SW
Cosmos 468 Rocket 4.1 22:10:44 56° ESE 22:10:44 56° ESE 22:15:53 10° NNE
ARIANE 5 R/B 3.7 22:11:52 32° ENE 22:11:58 32° ENE 22:15:56 10° N
ALOS 2 4.0 22:13:10 27° ENE 22:13:17 27° ENE 22:17:00 10° N
Geosat 4.0 22:08:19 10° NNE 22:13:19 76° WNW 22:14:40 49° SW
Cosmos 1833 4.2 22:11:33 42° SW 22:13:32 77° WNW 22:19:12 10° NNE
Cosmos 2297 Rocket 4.1 22:17:12 16° E 22:17:12 16° E 22:19:33 10° ENE
Meteor 2-6 Rocket 4.5 22:18:01 52° ESE 22:18:40 54° E 22:24:28 10° NNE
Cosmos 1076 Rocket 3.9 22:15:09 10° NNW 22:19:11 52° W 22:19:11 52° W
NOSS 3-4 (A) 4.0 22:13:11 10° NW 22:20:01 62° WSW 22:22:14 46° S
NOSS 3-4 (C) 4.0 22:13:48 10° NW 22:20:40 63° WSW 22:22:53 46° S
Cosmos 1536 3.6 22:18:44 10° N 22:21:26 44° NNE 22:21:26 44° NNE
Helios 1B rocket 3.2 22:25:59 42° N 22:25:59 42° N 22:28:25 10° NNW
Cosmos 2322 4.4 22:20:29 10° NNW 22:25:55 44° ENE 22:27:16 37° E
Cosmos 2360 Rocket 2.7 22:20:56 10° NW 22:26:20 46° WSW 22:27:05 43° SW
Helios 1A 3.4 22:23:21 10° N 22:26:53 54° NW 22:26:53 54° NW
USA 234 3.4 22:25:41 10° ENE 22:32:02 51° SE 22:32:06 51° SE
Cosmos 1763 Rocket 4.4 22:35:25 31° WSW 22:37:27 45° WNW 22:42:31 10° N
Cosmos 1092 Rocket 4.0 22:32:55 10° NNW 22:39:03 70° W 22:40:16 56° SSW
Cosmos 1898 Rocket 3.9 22:34:13 10° NNW 22:39:17 51° ENE 22:39:45 49° E
Cosmos 2219 Rocket 2.3 22:34:57 10° NNW 22:40:29 57° WSW 22:40:55 56° SW
Cosmos 1470 4.4 22:38:36 10° N 22:40:17 26° NNE 22:40:17 26° NNE
RESURS DK-1 3.5 22:41:14 10° NNW 22:44:26 37° NE 22:44:26 37° NE
Cosmos 1975 4.1 22:49:15 10° N 22:51:35 35° NNE 22:51:35 35° NNE
Cosmos 2322 Rocket 3.6 22:52:41 10° NW 22:57:07 24° WSW 22:57:32 24° WSW
NOSS 0 Rocket 4.3 22:52:31 10° NNW 22:58:36 55° ENE 23:00:06 44° ESE
Lacrosse 4 Rocket 4.0 23:01:08 10° ENE 23:01:08 10° ENE 23:01:15 10° ENE
ISS -1.4 22:58:45 10° NW 23:00:22 23° NNW 23:00:22 23° NNW
Cosmos 841 Rocket 3.4 23:09:02 85° NE 23:09:02 85° NE 23:14:10 10° NNE
Cosmos 1812 Rocket 4.1 23:10:37 56° NNE 23:10:37 56° NNE 23:14:11 10° NNE
Meteor 2-9 Rocket 4.0 23:04:53 10° NNW 23:10:18 84° W 23:10:27 83° SW
Cosmos 44 3.7 23:06:21 10° NW 23:11:09 57° W 23:11:09 57° W
CZ-2C R/B 4.2 23:08:01 10° N 23:12:13 51° WNW 23:12:13 51° WNW
Cosmos 2279 Rocket 4.2 23:14:25 53° SW 23:15:38 63° W 23:21:51 10° N
Cosmos 2237 Rocket 3.1 23:10:32 10° NNW 23:15:55 41° ENE 23:17:27 34° E
CZ-2C R/B 3.1 23:18:46 46° E 23:19:20 47° ENE 23:24:20 10° N
Cosmos 1980 4.4 23:14:32 10° NNW 23:20:01 47° ENE 23:21:17 40° E
Meteor 1-11 Rocket 3.6 23:15:23 10° N 23:21:04 78° E 23:21:21 76° ESE
Meteor 2-4 Rocket 4.3 23:23:24 41° E 23:23:24 41° E 23:28:30 10° NNE
Meteor 1-10 Rocket 4.1 23:23:16 77° S 23:23:44 88° E 23:29:42 10° N
COSMOS 2428 2.6 23:19:00 10° NNW 23:24:43 78° WSW 23:24:48 77° SW
Cosmos 2227 Rocket 3.6 23:26:17 25° E 23:26:17 25° E 23:30:26 10° NE
ACS3 Solar Sail 3.1 23:22:51 10° NE 23:27:45 26° E 23:28:30 25° ESE
Meteor 2-20 4.3 23:29:37 71° SSE 23:30:14 80° E 23:36:21 10° N
Cosmos 2221 3.5 23:31:11 41° NW 23:31:11 41° NW 23:34:29 10° N
Cosmos 1238 Rocket 4.0 23:37:43 38° NE 23:37:43 38° NE 23:40:38 10° NNE
Cosmos 2263 Rocket 3.9 23:37:50 19° E 23:37:50 19° E 23:41:32 10° NE
BREEZE-M DEB (TANK) 4.2 23:17:14 10° SW 23:37:46 64° SSE 23:43:11 10° ENE
GP-B 3.6 23:35:06 10° N 23:38:41 58° NNW 23:38:41 58° NNW
Meteor 1-27 Rocket 3.6 23:39:18 75° SE 23:39:41 78° E 23:45:27 10° NNE
Cosmos 858 Rocket 4.4 23:40:31 10° NNW 23:45:27 80° NW 23:45:27 80° NW
Cosmos 2266 Rocket 3.9 23:41:15 10° NNW 23:47:14 66° W 23:47:46 63° WSW
ARIANE 5 R/B 4.3 23:49:14 24° WNW 23:49:14 24° WNW 23:52:01 10° NW
Cosmos 1937 Rocket 3.9 23:44:22 10° NNW 23:48:46 51° WNW 23:48:46 51° WNW
ALOS 2 4.1 23:50:33 27° WNW 23:50:33 27° WNW 23:53:25 10° NNW
Iridium 4 Rocket 4.1 23:51:28 49° ESE 23:52:05 52° E 23:57:41 10° NNE
Sich 1 4.5 23:49:13 10° NNE 23:52:43 29° ENE 23:52:43 29° ENE
Landsat 5 4.3 23:51:53 10° NNE 23:54:53 45° NE 23:54:53 45° NE
